Weather in Korf

Russia / Kamchatka Krai     60°22′17″N   166°00′57″E
temp.,
°C
wind,
m/s
gust,
m/s
humid.,
%
clouds,
%
prec.,
mm/h
press.,
hPa
HPBL,
m
28 february, sun
sun2800:00−28n689744 0.0 1025187
03:00−28n7999100 0.0 1024184
06:00−27n810100100 0.1 1024192
09:00−26n89100100 0.1 1024180
12:00−23n8109786 0.1 1022192
15:00−21n8109842 0.0 1020207
18:00−19n8119470 0.0 1017221
21:00−21n91295100 0.0 1015224
1 march, mon
mon100:00−22n101597100 0.0 1009292
03:00−23n121894100 0.0 1003360
06:00−24n121897100 0.3 1000335
09:00−26n1014100100 0.7 997302
12:00−25n101399100 1.7 995330
15:00−22n81295100 0.3 994455
18:00−22n71190100 0.3 995475
21:00−23n8138895 0.0 998449
2 march, tue
tue200:00−24n6119497 0.0 999335
03:00−24n6109357 0.0 1001350
06:00−25n579755 0.0 1004182
09:00−23n579362 0.0 1008218
12:00−21nne578781 0.0 1010314
15:00−19n5687100 0.0 1013306
18:00−21n349390 0.0 1016111
21:00−22nne449399 0.0 1020103
3 march, wed
wed300:00−23n3492100 0.0 1022117
03:00−22nne3489100 0.0 1024153
06:00−23nne229097 0.0 1026105
09:00−24nne229530 0.0 102868
12:00−21nne228362 0.0 1028173
15:00−19nne4584100 0.0 1026217
18:00−18nne5688100 0.0 1021180
21:00−15ne61292100 0.1 1015441
4 march, thu
thu400:00−5ese152490100 2.5 10051103
03:00+1se182697100 6.3 993961
06:00+1se192896100 16.8 984980
09:00+1sse182796100 8.6 976960
12:00−1s111797100 14.4 973828
15:00−13nw111499100 1.3 976483
18:00−13w111877100 1.8 9831337
21:00−14wsw7137697 0.0 9891033